FW9555 Weather Reports


Display with metric or nautical units.
time (UTC)temp
F
wind
direction
speed
MPH
gust
MPH
rain 1hr
in
rain 24hr
in
rain mn
in
humidity
%
barometer
mb
20260831212259 95 15 0.0 0.0 0.00 0.00 0.00 52 1022.0
20260831211757 95 3 3.0 5.0 0.00 0.00 0.00 49 1022.0
20260831211252 97 337 1.0 2.0 0.00 0.00 0.00 49 1022.1
20260831210746 96 29 0.0 3.0 0.00 0.00 0.00 49 1021.9
20260831210243 97 283 0.0 2.0 0.00 0.00 0.00 49 1021.8
20260831205742 97 352 0.0 1.0 0.00 0.00 0.00 51 1021.8
20260831205238 95 5 2.0 4.0 0.00 0.00 0.00 52 1022.1
20260831204738 94 340 1.0 4.0 0.00 0.00 0.00 51 1022.0
20260831204237 95 330 3.0 3.0 0.00 0.00 0.00 50 1022.0
20260831203736 95 214 0.0 0.0 0.00 0.00 0.00 51 1022.1
20260831203231 95 312 2.0 3.0 0.00 0.00 0.00 50 1022.0
20260831202729 94 337 2.0 4.0 0.00 0.00 0.00 49 1022.2
20260831202225 95 337 3.0 4.0 0.00 0.00 0.00 47 1022.2
20260831201719 93 288 3.0 5.0 0.00 0.00 0.00 54 1022.4
20260831201218 94 348 1.0 3.0 0.00 0.00 0.00 50 1022.3
20260831200714 94 0 1.0 4.0 0.00 0.00 0.00 49 1022.4
20260831200214 95 300 2.0 4.0 0.00 0.00 0.00 48 1022.2
20260831195710 95 41 5.0 6.0 0.00 0.00 0.00 46 1022.3
20260831195206 95 306 1.0 2.0 0.00 0.00 0.00 51 1022.4
20260831194700 95 97 0.0 2.0 0.00 0.00 0.00 49 1022.6
20260831194155 94 12 1.0 2.0 0.00 0.00 0.00 54 1022.8
20260831193649 93 14 3.0 4.0 0.00 0.00 0.00 50 1022.9
20260831193145 93 315 0.0 5.0 0.00 0.00 0.00 52 1022.9
20260831192640 94 304 5.0 5.0 0.00 0.00 0.00 52 1022.7
20260831192135 93 308 5.0 5.0 0.00 0.00 0.00 53 1022.6
20260831191631 93 346 3.0 5.0 0.00 0.00 0.00 52 1023.1
20260831191127 96 286 0.0 1.0 0.00 0.00 0.00 54 1022.6
20260831190622 93 294 0.0 2.0 0.00 0.00 0.00 55 1022.8
20260831190121 94 356 0.0 3.0 0.00 0.00 0.00 54 1022.8
20260831185616 93 344 0.0 2.0 0.00 0.00 0.00 54 1022.9
20260831185112 93 210 2.0 5.0 0.00 0.00 0.00 57 1023.0
20260831184611 93 74 0.0 3.0 0.00 0.00 0.00 59 1022.9
20260831184107 92 54 0.0 2.0 0.00 0.00 0.00 59 1023.1
20260831183601 93 4 2.0 3.0 0.00 0.00 0.00 58 1023.2
20260831183101 92 243 0.0 3.0 0.00 0.00 0.00 58 1023.3
20260831182600 92 320 3.0 3.0 0.00 0.00 0.00 61 1023.1
20260831182056 93 18 2.0 3.0 0.00 0.00 0.00 57 1023.3
20260831181555 93 23 1.0 3.0 0.00 0.00 0.00 59 1023.4
20260831181050 92 282 2.0 4.0 0.00 0.00 0.00 60 1023.4
20260831180545 92 280 3.0 3.0 0.00 0.00 0.00 59 1023.5
20260831180040 91 0 2.0 4.0 0.00 0.00 0.00 59 1023.5
20260831175535 92 334 0.0 4.0 0.00 0.00 0.00 57 1023.5
20260831175032 92 345 0.0 3.0 0.00 0.00 0.00 56 1023.5
20260831174527 91 14 1.0 4.0 0.00 0.00 0.00 58 1023.5
20260831174026 92 283 0.0 3.0 0.00 0.00 0.00 60 1023.6
20260831173525 91 283 2.0 3.0 0.00 0.00 0.00 63 1023.5
20260831173021 91 24 0.0 3.0 0.00 0.00 0.00 63 1023.5
20260831172516 90 105 0.0 2.0 0.00 0.00 0.00 64 1023.7
20260831172011 89 311 2.0 3.0 0.00 0.00 0.00 64 1023.5
20260831171507 90 320 2.0 5.0 0.00 0.00 0.00 62 1023.7
20260831171004 90 14 2.0 2.0 0.00 0.00 0.00 64 1023.7
20260831170459 91 29 0.0 1.0 0.00 0.00 0.00 68 1023.5
20260831165956 90 283 2.0 4.0 0.00 0.00 0.00 66 1023.8
20260831165451 91 29 2.0 4.0 0.00 0.00 0.00 61 1024.1
20260831164948 91 66 1.0 2.0 0.00 0.00 0.00 68 1024.0
20260831164444 90 352 0.0 1.0 0.00 0.00 0.00 69 1024.0
20260831163939 88 320 2.0 3.0 0.00 0.00 0.00 66 1024.2
20260831163434 88 0 0.0 3.0 0.00 0.00 0.00 65 1023.9
20260831162932 89 15 0.0 3.0 0.00 0.00 0.00 72 1024.2
20260831162428 88 300 0.0 3.0 0.00 0.00 0.00 71 1024.1
20260831161926 87 343 3.0 5.0 0.00 0.00 0.00 67 1024.2
20260831161424 88 340 0.0 5.0 0.00 0.00 0.00 69 1024.1
20260831160919 89 352 0.0 2.0 0.00 0.00 0.00 72 1024.2
20260831160413 87 30 2.0 3.0 0.00 0.00 0.00 71 1024.3
20260831155908 86 358 4.0 4.0 0.00 0.00 0.00 73 1024.2
20260831155403 87 21 3.0 4.0 0.00 0.00 0.00 71 1024.3
20260831154858 87 8 1.0 3.0 0.00 0.00 0.00 71 1024.3
20260831154355 87 250 3.0 3.0 0.00 0.00 0.00 72 1024.6
20260831153852 86 307 5.0 5.0 0.00 0.00 0.00 75 1024.5
20260831153349 87 0 0.0 3.0 0.00 0.00 0.00 73 1024.6
20260831152845 86 285 0.0 2.0 0.00 0.00 0.00 76 1024.5
20260831152340 85 305 3.0 3.0 0.00 0.00 0.00 73 1024.5
20260831151840 84 354 1.0 3.0 0.00 0.00 0.00 76 1024.5
20260831151339 83 352 0.0 3.0 0.00 0.00 0.00 77 1024.5
20260831150835 82 339 2.0 3.0 0.00 0.00 0.00 77 1024.6
20260831150330 82 251 2.0 3.0 0.00 0.00 0.00 81 1024.6
20260831145829 81 346 0.0 3.0 0.00 0.00 0.00 82 1024.7
20260831145326 82 294 2.0 2.0 0.00 0.00 0.00 83 1024.8
20260831144821 82 8 0.0 3.0 0.00 0.00 0.00 82 1024.5
20260831144317 81 66 0.0 3.0 0.00 0.00 0.00 85 1024.5
20260831143817 80 6 1.0 3.0 0.00 0.00 0.00 86 1024.6
20260831143312 79 29 2.0 2.0 0.00 0.00 0.00 88 1024.7
20260831142807 79 355 0.0 3.0 0.00 0.00 0.00 88 1024.5
20260831142305 79 348 2.0 2.0 0.00 0.00 0.00 89 1024.6
20260831141803 78 29 1.0 3.0 0.00 0.00 0.00 88 1024.4
20260831141257 78 55 0.0 3.0 0.00 0.00 0.00 90 1024.6
20260831140752 78 350 3.0 5.0 0.00 0.00 0.00 89 1024.6
20260831140246 78 69 0.0 4.0 0.00 0.00 0.00 91 1024.7
20260831135744 77 60 0.0 3.0 0.00 0.00 0.00 92 1024.4
20260831135240 76 345 1.0 3.0 0.00 0.00 0.00 95 1024.5
20260831134735 75 294 1.0 1.0 0.00 0.00 0.00 97 1024.6
20260831134232 75 29 0.0 1.0 0.00 0.00 0.00 99 1024.4
20260831133730 74 82 0.0 2.0 0.00 0.00 0.00 99 1024.5
20260831133225 74 319 2.0 2.0 0.00 0.00 0.00 99 1024.4
20260831132720 73 323 2.0 3.0 0.00 0.00 0.00 99 1024.5
20260831132215 73 324 0.0 2.0 0.00 0.00 0.00 99 1024.4
20260831131714 73 303 0.0 2.0 0.00 0.00 0.00 99 1024.3
20260831131211 73 328 0.0 3.0 0.00 0.00 0.00 99 1024.2
20260831130706 72 0 0.0 0.0 0.00 0.00 0.00 99 1024.4
20260831130202 72 352 0.0 2.0 0.00 0.00 0.00 99 1024.5
20260831125700 72 0 0.0 1.0 0.00 0.00 0.00 99 1024.4
20260831125156 72 354 0.0 3.0 0.00 0.00 0.00 99 1024.3
20260831124651 71 337 0.0 2.0 0.00 0.00 0.00 99 1024.4
20260831124148 71 354 0.0 0.0 0.00 0.00 0.00 99 1024.3
20260831123647 70 345 0.0 0.0 0.00 0.00 0.00 99 1024.5
20260831123146 70 286 0.0 0.0 0.00 0.00 0.00 99 1024.5
20260831122645 69 286 0.0 0.0 0.00 0.00 0.00 99 1024.4
20260831122142 68 286 0.0 0.0 0.00 0.00 0.00 99 1024.6
20260831121641 68 286 0.0 0.0 0.00 0.00 0.00 99 1024.3
20260831121138 68 286 0.0 0.0 0.00 0.00 0.00 99 1024.5
20260831120633 68 286 0.0 0.0 0.00 0.00 0.00 99 1024.5
20260831120127 68 286 0.0 0.0 0.00 0.00 0.00 99 1024.4
20260831115624 67 286 0.0 0.0 0.00 0.00 0.00 99 1024.5
20260831115119 67 286 0.0 0.0 0.00 0.00 0.00 99 1024.4
20260831114618 67 286 0.0 0.0 0.00 0.00 0.00 99 1024.4
20260831114113 67 286 0.0 1.0 0.00 0.00 0.00 99 1024.4
20260831113612 67 0 0.0 0.0 0.00 0.00 0.00 99 1024.4
20260831113108 66 0 0.0 0.0 0.00 0.00 0.00 99 1024.4
20260831112607 66 0 0.0 0.0 0.00 0.00 0.00 99 1024.1
20260831112102 66 0 0.0 0.0 0.00 0.00 0.00 99 1024.3
20260831111558 66 0 0.0 0.0 0.00 0.00 0.00 99 1024.4
20260831111054 66 0 0.0 0.0 0.00 0.00 0.00 99 1024.5
20260831110549 66 0 0.0 0.0 0.00 0.00 0.00 99 1024.4
20260831110044 66 0 0.0 0.0 0.00 0.00 0.00 99 1024.2
20260831105543 66 0 0.0 0.0 0.00 0.00 0.00 99 1024.3
20260831105038 66 0 0.0 0.0 0.00 0.00 0.00 99 1024.0
20260831104534 66 0 0.0 0.0 0.00 0.00 0.00 99 1024.3
20260831104030 66 0 0.0 0.0 0.00 0.00 0.00 99 1024.1
20260831103524 66 0 0.0 0.0 0.00 0.00 0.00 99 1024.2
20260831103021 66 0 0.0 0.0 0.00 0.00 0.00 99 1024.2
20260831102515 66 0 0.0 0.0 0.00 0.00 0.00 99 1024.1
20260831102010 66 0 0.0 0.0 0.00 0.00 0.00 99 1024.0
20260831101505 66 0 0.0 0.0 0.00 0.00 0.00 99 1024.2
20260831101001 66 0 0.0 0.0 0.00 0.00 0.00 99 1024.1
20260831100456 67 0 0.0 0.0 0.00 0.00 0.00 99 1023.9
20260831095952 66 291 0.0 0.0 0.00 0.00 0.00 99 1024.0
20260831095451 66 291 0.0 0.0 0.00 0.00 0.00 99 1024.1
20260831094946 66 291 0.0 0.0 0.00 0.00 0.00 99 1023.9
20260831094442 66 352 0.0 0.0 0.00 0.00 0.00 99 1023.8
20260831093937 66 291 0.0 0.0 0.00 0.00 0.00 99 1023.9
20260831093432 67 270 0.0 0.0 0.00 0.00 0.00 99 1024.0
20260831092929 66 23 0.0 1.0 0.00 0.00 0.00 99 1024.0
20260831092425 67 0 0.0 0.0 0.00 0.00 0.00 99 1023.7
20260831091920 67 0 0.0 0.0 0.00 0.00 0.00 99 1023.6
20260831091415 67 81 0.0 0.0 0.00 0.00 0.00 99 1023.8
20260831090910 67 81 0.0 0.0 0.00 0.00 0.00 99 1023.7
20260831090406 67 81 0.0 0.0 0.00 0.00 0.00 99 1023.7
20260831085902 67 81 0.0 0.0 0.00 0.00 0.00 99 1023.8
20260831085356 67 81 0.0 0.0 0.00 0.00 0.00 99 1023.4
20260831084850 67 81 0.0 0.0 0.00 0.00 0.00 99 1023.7
20260831084347 67 352 0.0 0.0 0.00 0.00 0.00 99 1023.5
20260831083843 67 352 0.0 0.0 0.00 0.00 0.00 99 1023.4
20260831083338 67 352 0.0 0.0 0.00 0.00 0.00 99 1023.7
20260831082837 67 352 0.0 0.0 0.00 0.00 0.00 99 1023.7
20260831082332 67 352 0.0 0.0 0.00 0.00 0.00 99 1023.4
20260831081827 67 352 0.0 0.0 0.00 0.00 0.00 99 1023.7
20260831081323 67 352 0.0 0.0 0.00 0.00 0.00 99 1023.6
20260831080819 68 352 0.0 0.0 0.00 0.00 0.00 99 1023.5
20260831080318 67 352 0.0 0.0 0.00 0.00 0.00 99 1023.6
20260831075814 67 352 0.0 0.0 0.00 0.00 0.00 99 1023.7
20260831075309 67 331 0.0 0.0 0.00 0.00 0.00 99 1023.7
20260831074804 68 331 0.0 1.0 0.00 0.00 0.00 99 1023.6
20260831074303 68 0 0.0 0.0 0.00 0.00 0.00 99 1023.6
20260831073759 68 0 0.0 0.0 0.00 0.00 0.00 99 1023.5
20260831073257 68 0 0.0 0.0 0.00 0.00 0.00 99 1023.7
20260831072753 68 0 0.0 0.0 0.00 0.00 0.00 99 1023.6
20260831072249 68 15 0.0 0.0 0.00 0.00 0.00 99 1023.7
20260831071744 68 15 0.0 0.0 0.00 0.00 0.00 99 1023.9
20260831071238 68 15 0.0 0.0 0.00 0.00 0.00 99 1023.7
20260831070733 68 352 0.0 0.0 0.00 0.00 0.00 99 1023.9
20260831070227 68 352 0.0 0.0 0.00 0.00 0.00 99 1023.9
20260831065726 68 352 0.0 0.0 0.00 0.00 0.00 99 1023.9
20260831065224 68 0 0.0 0.0 0.00 0.00 0.00 99 1023.9
20260831064719 68 0 0.0 0.0 0.00 0.00 0.00 99 1023.8
20260831064215 68 0 0.0 0.0 0.00 0.00 0.00 99 1023.8
20260831063711 68 0 0.0 0.0 0.00 0.00 0.00 99 1024.0
20260831063206 68 7 0.0 1.0 0.00 0.00 0.00 99 1023.8
20260831062705 68 354 0.0 0.0 0.00 0.00 0.00 99 1023.8
20260831062200 68 15 0.0 0.0 0.00 0.00 0.00 99 1024.1
20260831061657 68 15 0.0 0.0 0.00 0.00 0.00 99 1023.8
20260831061154 69 0 0.0 0.0 0.00 0.00 0.00 99 1024.1
20260831060650 69 0 0.0 0.0 0.00 0.00 0.00 99 1024.1
20260831060149 69 0 0.0 0.0 0.00 0.00 0.00 99 1023.9
20260831055648 68 352 0.0 0.0 0.00 0.00 0.00 99 1023.8
20260831055144 69 352 0.0 1.0 0.00 0.00 0.00 99 1023.7
20260831054643 69 8 0.0 0.0 0.00 0.00 0.00 99 1023.8
20260831054138 69 8 0.0 0.0 0.00 0.00 0.00 99 1023.9
20260831053633 69 352 0.0 0.0 0.00 0.00 0.00 99 1023.8
20260831053131 69 294 0.0 0.0 0.00 0.00 0.00 99 1024.0
20260831052631 69 294 0.0 0.0 0.00 0.00 0.00 99 1024.2
20260831052130 69 294 0.0 0.0 0.00 0.00 0.00 99 1023.8
20260831051628 69 294 0.0 0.0 0.00 0.00 0.00 99 1023.9
20260831051127 69 294 0.0 0.0 0.00 0.00 0.00 99 1024.0
20260831050622 69 294 0.0 0.0 0.00 0.00 0.00 99 1023.8
20260831050121 69 294 0.0 0.0 0.00 0.00 0.00 99 1023.8
20260831045621 69 294 0.0 0.0 0.00 0.00 0.00 99 1023.9
20260831045116 69 294 0.0 0.0 0.00 0.00 0.00 99 1024.0
20260831044611 69 294 0.0 0.0 0.00 0.00 0.00 99 1024.0
20260831044106 70 294 0.0 0.0 0.00 0.00 0.00 99 1024.1
20260831043601 69 294 0.0 0.0 0.00 0.00 0.00 99 1024.2
20260831043056 70 294 0.0 0.0 0.00 0.00 0.00 99 1023.9
20260831042556 70 294 0.0 0.0 0.00 0.00 0.00 99 1024.1
20260831042051 70 294 0.0 0.0 0.00 0.00 0.00 99 1024.0
20260831041546 70 294 0.0 0.0 0.00 0.00 0.00 99 1024.3
20260831041046 70 294 0.0 0.0 0.00 0.00 0.00 98 1024.2
20260831040540 70 294 0.0 0.0 0.00 0.00 0.00 98 1024.2
20260831040040 70 294 0.0 0.0 0.00 0.00 0.00 98 1024.1
20260831035537 70 294 0.0 0.0 0.00 0.00 0.00 98 1024.2
20260831035033 70 294 0.0 0.0 0.00 0.00 0.00 98 1024.3
20260831034532 70 294 0.0 0.0 0.00 0.00 0.00 98 1023.9
20260831034028 71 294 0.0 0.0 0.00 0.00 0.00 98 1024.1
20260831033523 71 294 0.0 0.0 0.00 0.00 0.00 98 1024.1
20260831033018 71 294 0.0 0.0 0.00 0.00 0.00 98 1024.3
20260831032518 71 294 0.0 0.0 0.00 0.00 0.00 98 1024.4
20260831032014 71 294 0.0 0.0 0.00 0.00 0.00 98 1024.5
20260831031513 71 294 0.0 0.0 0.00 0.00 0.00 98 1024.3
20260831031012 72 294 0.0 0.0 0.00 0.00 0.00 98 1024.4
20260831030512 72 294 0.0 1.0 0.00 0.00 0.00 97 1024.1
20260831030011 72 279 0.0 0.0 0.00 0.00 0.00 97 1024.3
20260831025509 71 279 0.0 0.0 0.00 0.00 0.00 96 1024.5
20260831025005 71 279 0.0 0.0 0.00 0.00 0.00 96 1024.5
20260831024500 71 279 0.0 0.0 0.00 0.00 0.00 96 1024.4
20260831023954 72 279 0.0 0.0 0.00 0.00 0.00 96 1024.4
20260831023452 72 279 0.0 0.0 0.00 0.00 0.00 96 1024.3
20260831022947 72 279 0.0 0.0 0.00 0.00 0.00 96 1024.1
20260831022446 72 279 0.0 0.0 0.00 0.00 0.00 96 1024.4
20260831021941 72 279 0.0 0.0 0.00 0.00 0.00 96 1024.4
20260831021440 73 279 0.0 0.0 0.00 0.00 0.00 96 1024.3
20260831020937 73 279 0.0 0.0 0.00 0.00 0.00 95 1024.3
20260831020436 73 279 0.0 0.0 0.00 0.00 0.00 95 1024.1
20260831015931 73 279 0.0 0.0 0.00 0.00 0.00 95 1024.0
20260831015427 73 279 0.0 0.0 0.00 0.00 0.00 95 1024.0
20260831014922 73 279 0.0 0.0 0.00 0.00 0.00 94 1024.1
20260831014417 73 279 0.0 0.0 0.00 0.00 0.00 93 1023.7
20260831013913 74 279 0.0 0.0 0.00 0.00 0.00 93 1024.2
20260831013408 73 279 0.0 0.0 0.00 0.00 0.00 93 1024.0
20260831012902 74 279 0.0 0.0 0.00 0.00 0.00 93 1024.0
20260831012357 74 279 0.0 0.0 0.00 0.00 0.00 93 1023.8
20260831011857 74 279 0.0 0.0 0.00 0.00 0.00 92 1024.0
20260831011352 74 279 0.0 0.0 0.00 0.00 0.00 92 1023.8
20260831010848 75 279 0.0 0.0 0.00 0.00 0.00 92 1023.7
20260831010348 75 279 0.0 0.0 0.00 0.00 0.00 91 1023.5
20260831005844 75 279 0.0 0.0 0.00 0.00 0.00 91 1023.8
20260831005339 75 279 0.0 0.0 0.00 0.00 0.00 91 1023.7
20260831004834 76 279 0.0 0.0 0.00 0.00 0.00 90 1023.7
20260831004330 76 279 0.0 0.0 0.00 0.00 0.00 90 1023.6
20260831003826 76 279 0.0 0.0 0.00 0.00 0.00 89 1023.7
20260831003322 77 279 0.0 0.0 0.00 0.00 0.00 89 1023.3
20260831002821 77 279 0.0 0.0 0.00 0.00 0.00 88 1023.6
20260831002320 77 279 0.0 0.0 0.00 0.00 0.00 87 1023.5
20260831001816 77 279 0.0 0.0 0.00 0.00 0.00 86 1023.3
20260831001311 78 279 0.0 0.0 0.00 0.00 0.00 86 1023.2
20260831000809 78 279 0.0 0.0 0.00 0.00 0.00 85 1023.4
20260831000310 79 279 0.0 0.0 0.00 0.00 0.00 84 1023.4
20260830235807 79 279 0.0 0.0 0.00 0.00 0.00 83 1023.1
20260830235305 80 279 0.0 0.0 0.00 0.00 0.00 83 1023.4
20260830234756 80 279 0.0 0.0 0.00 0.00 0.00 81 1023.4
20260830234253 80 279 0.0 0.0 0.00 0.00 0.00 81 1023.4
20260830233748 81 279 0.0 0.0 0.00 0.00 0.00 80 1023.4
20260830233244 82 279 0.0 0.0 0.00 0.00 0.00 78 1023.3
20260830232739 83 279 0.0 0.0 0.00 0.00 0.00 77 1023.3
20260830232235 84 279 0.0 0.0 0.00 0.00 0.00 76 1023.2
20260830231731 84 286 0.0 0.0 0.00 0.00 0.00 75 1023.3
20260830231231 84 286 0.0 1.0 0.00 0.00 0.00 76 1023.5
20260830230726 84 286 0.0 1.0 0.00 0.00 0.00 77 1023.3
20260830230221 84 291 0.0 0.0 0.00 0.00 0.00 77 1023.5
20260830225720 84 291 0.0 0.0 0.00 0.00 0.00 76 1023.3
20260830225215 85 291 1.0 2.0 0.00 0.00 0.00 75 1023.3
20260830224714 86 345 0.0 0.0 0.00 0.00 0.00 73 1023.4
20260830224210 86 345 0.0 0.0 0.00 0.00 0.00 71 1023.4
20260830223707 88 345 0.0 0.0 0.00 0.00 0.00 68 1023.1
20260830223202 90 345 0.0 0.0 0.00 0.00 0.00 64 1023.3
20260830222656 94 353 0.0 0.0 0.00 0.00 0.00 58 1023.1
20260830222152 97 285 0.0 1.0 0.00 0.00 0.00 54 1023.1
20260830221647 99 324 0.0 2.0 0.00 0.00 0.00 52 1023.3
20260830221144 99 172 0.0 1.0 0.00 0.00 0.00 52 1022.9
20260830220639 98 291 0.0 0.0 0.00 0.00 0.00 55 1022.9
20260830220138 96 352 0.0 1.0 0.00 0.00 0.00 59 1023.0
20260830215637 93 294 0.0 1.0 0.00 0.00 0.00 62 1023.2
20260830215131 90 340 0.0 0.0 0.00 0.00 0.00 66 1023.1
20260830214627 92 7 0.0 0.0 0.00 0.00 0.00 62 1023.1
20260830214121 95 7 0.0 0.0 0.00 0.00 0.00 58 1023.0
20260830213620 95 291 1.0 1.0 0.00 0.00 0.00 60 1023.2
20260830213116 92 0 0.0 0.0 0.00 0.00 0.00 60 1023.3